[[{"header":{"parameterUnit":"m.s-1","parameterCategory":1,"la1":30.2991,"la2":30.254,"lo1":-89.0895,"lo2":-89.0444,"dy":0.0017,"dx":0.0017,"nx":28,"ny":28,"refTime":"2025-04-25T21:00:00:Z","depth":0,"parameterNumber":2,"parameterNumberName":"U-component_of_WINDS"},"data":[0,0,0,0,0,0,0,0,0,0,0,0,0,0,0,0,0,0,0,0,0,0,0,0,0,0,0,0,0,0,0,0,0,0,0,0,0,0,0,0,0,0,0,0,0,0,0,0,0,0,0,0,0,0,0,0,0,0,0.1146,0.1147,0,0.1244,0.1245,0.1246,0.1292,0.1292,0.1292,0.1292,0.1394,0.1396,0.1399,0,0,0,0,0,0,0,0,0,0,0,0,0,0.0997,0.1,0.1146,0.1147,0.1148,0.1244,0.1245,0.1247,0.1292,0.1292,0.1292,0.1292,0.1393,0.1396,0.1399,0,0,0,0,0,0,0,0,0,0,0,0,0,0.1075,0.1001,0.1146,0.1183,0.1187,0.1244,0.1245,0.1247,0.1292,0.1292,0.1292,0.1292,0.1392,0.1396,0.14,0.1427,0,0,0.1412,0.1414,0,0,0,0,0,0,0,0,0.1071,0.1081,0.1176,0.118,0.1185,0.1256,0.123,0.1308,0.1292,0.1252,0.1292,0.1292,0.1348,0.1356,0.1374,0.1432,0.1437,0.1413,0.1415,0.1417,0.1418,0,0,0,0,0,0,0,0.1065,0.1077,0.1185,0.1177,0.1183,0.1194,0.1205,0.1245,0.13,0.1256,0.1259,0.127,0.135,0.137,0.1377,0.1438,0.1413,0.1416,0.1419,0.1421,0.1522,0.1523,0,0,0,0,0,0,0.1054,0.1072,0.1182,0.1188,0.1127,0.1197,0.1209,0.1233,0.1299,0.1309,0.127,0.1272,0.1363,0.1372,0.1381,0.1417,0.1417,0.1421,0.1423,0.1522,0.1522,0.1523,0,0,0,0,0,0,0.1051,0.1063,0.1178,0.1131,0.1146,0.12,0.1226,0.1235,0.1255,0.131,0.132,0.1281,0.1363,0.1375,0.1415,0.1421,0.1423,0.1427,0.1522,0.1522,0.1522,0.149,0,0,0,0,0,0,0.1046,0.1062,0.1073,0.1131,0.1149,0.121,0.1227,0.1237,0.1262,0.1265,0.1322,0.1332,0.1364,0.1409,0.1419,0.1427,0.143,0.1522,0.1522,0.1522,0.1491,0.1489,0.1488,0,0,0,0,0,0.1041,0.106,0.1073,0.1086,0.1164,0.1211,0.1221,0.1258,0.1262,0.1274,0.1309,0.133,0.1419,0.1412,0.1425,0.1434,0.1521,0.1522,0.1522,0.1491,0.1489,0.1488,0,0,0,0,0,0,0.1003,0.1069,0.1084,0.1123,0.1161,0.1218,0.1234,0.1254,0.1292,0.1294,0.1338,0.135,0.1386,0.1414,0.1406,0.1463,0.1472,0.1475,0.1444,0.1443,0.1441,0.1434,0.1433,0,0,0,0,0,0.0999,0.1031,0.1087,0.1116,0.1134,0.1181,0.1203,0.1227,0.1269,0.1285,0.1323,0.1362,0.1399,0.1422,0.1459,0.1494,0.1507,0.1507,0.1505,0.1504,0.1506,0.1526,0.1526,0.1524,0.1524,0.1524,0,0,0.0991,0.1031,0.1049,0.1109,0.1142,0.1174,0.1194,0.1228,0.1252,0.129,0.133,0.1359,0.1406,0.1444,0.1462,0.1468,0.1509,0.1504,0.1502,0.1506,0.1526,0.1526,0.1526,0.1525,0.1524,0.1524,0,0,0.0994,0.1028,0.1055,0.1087,0.1135,0.1165,0.1172,0.1226,0.1247,0.1288,0.1316,0.1346,0.1408,0.144,0.1464,0.1477,0.1498,0.1488,0.148,0.1499,0.1499,0.1499,0.1504,0.1505,0.149,0.149,0.149,0,0.0978,0.1029,0.1067,0.1099,0.1124,0.1159,0.1187,0.1215,0.1273,0.129,0.1295,0.1373,0.1407,0.1452,0.1455,0.1474,0.1482,0.1482,0.1496,0.1497,0.1498,0.1502,0.1504,0.1488,0.1488,0.1488,0.1489,0,0.1007,0.1041,0.1058,0.1112,0.1139,0.1169,0.1211,0.1234,0.1255,0.1285,0.1326,0.1367,0.1413,0.1425,0.1447,0.1473,0.1475,0.1487,0.1497,0.1496,0.15,0.1503,0.1486,0.1486,0.1487,0.1487,0,0,0.099,0.1064,0.1069,0.1094,0.1149,0.1176,0.1207,0.125,0.1269,0.1307,0.1334,0.1385,0.1397,0.1424,0.145,0.1466,0.1473,0.1477,0.1479,0.1475,0.1503,0.1493,0.1495,0.1486,0.1487,0.1487,0.1499,0,0.1,0.1057,0.1091,0.1134,0.1166,0.1199,0.1225,0.1262,0.129,0.1321,0.1352,0.1387,0.14,0.1417,0.1434,0.1468,0.1479,0.1468,0.1512,0.1513,0.1499,0.1498,0.1488,0.1497,0.1501,0.1502,0.1502,0,0.102,0.1057,0.1103,0.1153,0.1168,0.1191,0.1234,0.1263,0.1304,0.1324,0.1353,0.1379,0.1412,0.1418,0.1464,0.1456,0.1475,0.1495,0.1496,0.1502,0.1508,0.1503,0.1501,0.1502,0.1506,0.1505,0.1505,0,0.1003,0.1064,0.1099,0.1119,0.1179,0.1194,0.122,0.1261,0.1285,0.1322,0.1338,0.1378,0.14,0.143,0.1466,0.1467,0.1508,0.1517,0.1525,0.1524,0.1533,0.1532,0.1533,0.1545,0.1545,0.1545,0.1545,0,0.1011,0.1038,0.1092,0.1113,0.1144,0.1182,0.1211,0.124,0.1276,0.1303,0.1334,0.1359,0.1404,0.1434,0.1462,0.1496,0.1506,0.1522,0.1529,0.152,0.1517,0.1534,0.1534,0.1545,0.1545,0.1545,0.1545,0,0.0997,0.1034,0.1075,0.1127,0.1141,0.1161,0.1207,0.1228,0.1257,0.1292,0.1302,0.1348,0.1385,0.1423,0.1473,0.1492,0.1525,0.1535,0.1511,0.1515,0.152,0.1519,0.1532,0.1536,0.1544,0.1544,0.1544,0,0.1,0.1021,0.1076,0.1096,0.1121,0.1153,0.1177,0.1216,0.1239,0.1287,0.1303,0.1343,0.1376,0.1434,0.1472,0.151,0.1521,0.1523,0.1527,0.1516,0.1521,0.1519,0.1521,0.1522,0.1521,0.1521,0.1521,0,0.1001,0.1018,0.1052,0.1091,0.1119,0.1152,0.1186,0.1201,0.1246,0.1271,0.1309,0.1335,0.1385,0.1424,0.1466,0.1493,0.1514,0.1519,0.1523,0.1513,0.1498,0.1506,0.1507,0.1519,0.1519,0.1519,0.1519,0.1519,0.0996,0.1016,0.1057,0.1093,0.1122,0.1153,0.1176,0.1208,0.124,0.1284,0.1305,0.1342,0.1382,0.1442,0.1467,0.1497,0.1503,0.1509,0.151,0.1511,0.1509,0.1493,0.1505,0.1505,0.1505,0.1505,0.1506,0,0.0998,0.1026,0.1059,0.1105,0.1133,0.115,0.1188,0.1211,0.1243,0.1279,0.1311,0.1354,0.1391,0.1431,0.147,0.1486,0.1497,0.1495,0.1494,0.15,0.1501,0.1494,0.1486,0.1486,0.1486,0.1486,0.1486,0.1486,0.1003,0.1037,0.1059,0.1108,0.1136,0.1173,0.1193,0.1221,0.125,0.1296,0.1327,0.1352,0.1389,0.1431,0.1466,0.1476,0.1489,0.1485,0.1498,0.1499,0.15,0.1502,0.1495,0.1487,0.1487,0.1495,0.1495,0.1495]},{"header":{"parameterUnit":"m.s-1","parameterCategory":1,"la1":30.2991,"la2":30.254,"lo1":-89.0895,"lo2":-89.0444,"dy":0.0017,"dx":0.0017,"nx":28,"ny":28,"refTime":"2025-04-25T21:00:00:Z","depth":0,"parameterNumber":3,"parameterNumberName":"V-component_of_WINDS"},"data":[0,0,0,0,0,0,0,0,0,0,0,0,0,0,0,0,0,0,0,0,0,0,0,0,0,0,0,0,0,0,0,0,0,0,0,0,0,0,0,0,0,0,0,0,0,0,0,0,0,0,0,0,0,0,0,0,0,0,3.5189,3.5188,0,3.5157,3.5157,3.5156,3.5124,3.5124,3.5123,3.5123,3.5088,3.5087,3.5087,0,0,0,0,0,0,0,0,0,0,0,0,0,3.5219,3.5219,3.5189,3.5188,3.5188,3.5157,3.5157,3.5156,3.5124,3.5124,3.5123,3.5123,3.5088,3.5087,3.5087,0,0,0,0,0,0,0,0,0,0,0,0,0,3.5199,3.5219,3.5189,3.5168,3.5166,3.5157,3.5157,3.5156,3.5124,3.5124,3.5123,3.5123,3.5088,3.5087,3.5087,3.5094,0,0,3.5084,3.5084,0,0,0,0,0,0,0,0,3.52,3.5197,3.5172,3.517,3.5167,3.5144,3.5155,3.5135,3.5125,3.514,3.5123,3.5122,3.5107,3.5104,3.51,3.5093,3.5091,3.5084,3.5084,3.5083,3.5083,0,0,0,0,0,0,0,3.5201,3.5199,3.5176,3.5171,3.5169,3.516,3.5156,3.5151,3.5127,3.5139,3.5136,3.5133,3.5105,3.5101,3.5099,3.5091,3.5084,3.5083,3.5083,3.5083,3.5089,3.509,0,0,0,0,0,0,3.5206,3.52,3.5177,3.5175,3.5182,3.516,3.5156,3.5152,3.5127,3.5123,3.5134,3.5132,3.5102,3.51,3.5097,3.5105,3.5083,3.5082,3.5082,3.5088,3.5089,3.509,0,0,0,0,0,0,3.5207,3.5204,3.5178,3.5187,3.5183,3.516,3.5156,3.5152,3.5147,3.5124,3.5119,3.5133,3.5102,3.5099,3.5096,3.5104,3.5082,3.5081,3.5088,3.5089,3.5089,3.5121,0,0,0,0,0,0,3.5208,3.5205,3.5208,3.5187,3.5183,3.5178,3.5157,3.5152,3.5146,3.5143,3.5122,3.5118,3.5101,3.5097,3.5095,3.5102,3.5081,3.5087,3.5088,3.5089,3.5119,3.5123,3.5126,0,0,0,0,0,3.5209,3.5217,3.5208,3.5206,3.5186,3.5179,3.5176,3.5157,3.5147,3.515,3.5135,3.5119,3.5103,3.5097,3.5094,3.5101,3.5086,3.5088,3.5089,3.5117,3.5122,3.5126,0,0,0,0,0,0,3.5238,3.5214,3.5204,3.5206,3.5195,3.5173,3.5176,3.5162,3.5153,3.5151,3.5127,3.5122,3.5122,3.5111,3.5105,3.5108,3.5092,3.5093,3.5115,3.5119,3.5123,3.5125,3.508,0,0,0,0,0,3.5246,3.5242,3.5221,3.5224,3.5219,3.5199,3.5195,3.5181,3.5168,3.5163,3.5148,3.5135,3.5127,3.5123,3.5114,3.5117,3.5112,3.5121,3.5124,3.5127,3.5128,3.513,3.5133,3.5095,3.5095,3.5095,0,0,3.5259,3.5246,3.5245,3.523,3.522,3.5216,3.5195,3.5192,3.5188,3.5162,3.5159,3.5148,3.5132,3.5132,3.5131,3.5123,3.5138,3.5129,3.5132,3.5131,3.5131,3.5135,3.5138,3.5096,3.5095,3.5095,0,0,3.5283,3.5272,3.5274,3.5265,3.525,3.5236,3.5237,3.5218,3.5209,3.5206,3.5186,3.5182,3.5169,3.5159,3.5152,3.5172,3.5157,3.517,3.5188,3.519,3.5193,3.5195,3.5203,3.5206,3.5171,3.5171,3.5171,0,3.5302,3.5296,3.5277,3.5275,3.5269,3.5247,3.5249,3.524,3.5223,3.5219,3.521,3.5194,3.5181,3.5179,3.5185,3.518,3.5179,3.5172,3.5194,3.5196,3.5198,3.5205,3.5208,3.5173,3.5173,3.5173,3.5173,0,3.532,3.5316,3.532,3.5305,3.5299,3.5299,3.528,3.5277,3.5264,3.5251,3.5248,3.5233,3.5221,3.522,3.5207,3.5216,3.5211,3.5199,3.5182,3.5204,3.521,3.5212,3.5175,3.5175,3.5174,3.5174,0,0,3.536,3.5336,3.5337,3.533,3.5313,3.5309,3.5308,3.5298,3.5295,3.5284,3.5283,3.5273,3.5262,3.5254,3.524,3.5241,3.5258,3.5228,3.5227,3.5234,3.5267,3.5277,3.528,3.5248,3.5249,3.5249,3.5269,0,3.538,3.5378,3.5361,3.5364,3.536,3.5339,3.5338,3.5327,3.5315,3.531,3.5296,3.529,3.5275,3.527,3.5271,3.5256,3.5265,3.5255,3.5246,3.5246,3.5251,3.5283,3.5293,3.5312,3.5271,3.5271,3.5272,0,3.5403,3.5395,3.5397,3.538,3.5378,3.5378,3.5367,3.5363,3.5349,3.5341,3.5333,3.5317,3.5315,3.53,3.5296,3.5289,3.5285,3.5277,3.5278,3.5276,3.526,3.5282,3.5318,3.5321,3.5275,3.5275,3.5274,0,3.5433,3.5422,3.5422,3.5417,3.5397,3.5397,3.5389,3.5375,3.537,3.5361,3.5357,3.5347,3.5342,3.5334,3.5316,3.5307,3.5314,3.5298,3.5306,3.5307,3.5308,3.5308,3.5344,3.5306,3.5306,3.5306,3.5306,0,3.5457,3.5459,3.5435,3.5435,3.5437,3.5418,3.542,3.5409,3.5397,3.5395,3.5375,3.5373,3.535,3.5344,3.533,3.5329,3.5327,3.5319,3.5315,3.5321,3.5322,3.5317,3.5315,3.5306,3.5306,3.5306,3.5306,0,3.5489,3.5473,3.5472,3.5454,3.5449,3.5452,3.5436,3.5435,3.5422,3.5419,3.5417,3.5397,3.539,3.5372,3.536,3.535,3.5353,3.5346,3.5358,3.5355,3.5365,3.5364,3.5398,3.5402,3.5362,3.5362,3.5363,0,3.5506,3.5507,3.5489,3.5487,3.5479,3.5475,3.547,3.5451,3.5447,3.5433,3.5434,3.5425,3.5418,3.5408,3.5391,3.5382,3.5375,3.5387,3.5373,3.5379,3.5375,3.5375,3.5375,3.539,3.5391,3.5391,3.5392,0,3.5536,3.5529,3.5523,3.5515,3.551,3.5502,3.5494,3.5492,3.5471,3.5467,3.5461,3.5455,3.5443,3.5435,3.5424,3.5414,3.5399,3.5397,3.5398,3.5403,3.541,3.5407,3.5366,3.5396,3.5395,3.5395,3.5395,3.5395,3.5561,3.5562,3.555,3.5544,3.5536,3.5528,3.5527,3.5515,3.5509,3.5499,3.5488,3.5482,3.5469,3.5453,3.5444,3.5439,3.5431,3.5434,3.5434,3.5435,3.5437,3.5412,3.5437,3.5437,3.5437,3.5437,3.5437,0,3.5591,3.5582,3.5578,3.5566,3.5562,3.555,3.554,3.5537,3.5533,3.5522,3.5516,3.5508,3.55,3.5484,3.5475,3.5474,3.5467,3.5472,3.5472,3.547,3.5445,3.5445,3.5478,3.5478,3.5478,3.5478,3.5478,3.5478,3.5606,3.5606,3.5597,3.5593,3.5584,3.558,3.5575,3.5568,3.556,3.5552,3.5546,3.5536,3.5524,3.5514,3.5506,3.5501,3.5499,3.5506,3.5499,3.5476,3.5472,3.5468,3.5468,3.5506,3.5506,3.5525,3.5525,3.5526]}]]